Back to catalog

STARLINK-36573

AliveCommunicationsSSO
NORAD 67539·PAYLOAD·🇺🇸 United States

Launched Jan 22, 2026 from Vandenberg Space Force Base

Loading…

Next Passes (next 24 hours)

TLE

FreshSource: CelesTrak SupGP

Epoch: Sep 15, 2026, 03:19 UTC

1 67539C 26014H   26258.13868056  .00064323  00000+0  19961-2 0  2586
2 67539  97.2845 143.5724 0001921  99.6248 348.7291 15.33416186    17

Track STARLINK-36573 in real time with AllMySat

Download on the App Store